Regional Weather Roundup
Issued by NWS

Home | Current Version | Previous Version | Text Only | Print | Product List | Glossary Off
Versions: 1 2 3 4 5 6 7 8 9 10 11 12 13 14 15 16 17 18 19 20 21 22 23 24 25 26 27 28 29 30 31 32 33 34 35 36 37 38 39 40 41 42 43 44 45 46 47 48 49 50

000
ASUS43 KOAX 261002
RWRNE

WEATHER ROUNDUP FOR NEBRASKA
NATIONAL WEATHER SERVICE OMAHA NE
500 AM CDT MON JUN 26 2017

NOTES: SATELLITE DATA IS BEING USED TO AUGMENT CLOUD COVER ABOVE
       12000 FEET.
       "FAIR" INDICATES FEW OR NO CLOUDS BELOW 12,000 FEET WITH NO
       SIGNIFICANT WEATHER AND/OR OBSTRUCTIONS TO VISIBILITY.

  * THESE STATIONS DO NOT REPORT WEATHER SUCH AS RAIN...SNOW OR FOG.

NEZ001>004-019>022-054>056-261100-
NEBRASKA PANHANDLE

CITY           SKY/WX    TMP DP  RH WIND       PRES   REMARKS
GORDON         FAIR      49  40  72 CALM      30.23S
KIMBALL        FAIR      53  53  99 W6        30.27S
$$

NEZ057>060-069>072-079>082-261100-
SOUTHWEST NEBRASKA

CITY           SKY/WX    TMP DP  RH WIND       PRES   REMARKS
LEXINGTON      CLOUDY    60  57  89 SW8       30.23F
OGALLALA       FAIR      52  51  95 CALM      30.22S
$$

NEZ005>010-023>029-035>040-094-261100-
NORTH CENTRAL NEBRASKA

CITY           SKY/WX    TMP DP  RH WIND       PRES   REMARKS
AINSWORTH      MOCLDY    53  49  85 NW5       30.20R
O`NEILL        FAIR      54  50  86 CALM      30.18F
THEDFORD       FAIR      55  53  91 CALM      30.21S
$$

NEZ041-046>049-061>064-073>077-083>087-261100-
SOUTH CENTRAL NEBRASKA

CITY           SKY/WX    TMP DP  RH WIND       PRES   REMARKS
AURORA         FAIR      59  54  84 SW12G18   30.20F
HEBRON         LGT RAIN  59  54  84 W6        30.20F
HOLDREGE       FAIR      56  54  91 W7        30.22F
YORK           FAIR      59  52  77 SW10      30.19F
$$

NEZ011>018-030>034-042>045-261100-
NORTHEAST NEBRASKA

CITY           SKY/WX    TMP DP  RH WIND       PRES   REMARKS
NORFOLK        FAIR      56  46  69 SE7       30.19R
ALBION         MOCLDY    61  51  69 CALM      30.18R
BLAIR          MOCLDY    57  53  85 NE5       30.19S
FREMONT        FAIR      61  48  63 CALM      30.20R
WAYNE          FAIR      54  53  98 CALM      30.17F
$$

NEZ050>053-065>068-078-088>093-261100-
SOUTHEAST NEBRASKA

CITY           SKY/WX    TMP DP  RH WIND       PRES   REMARKS
BEATRICE       FAIR      58  54  84 W7        30.19F
NEBRASKA CITY  FAIR      56  56  97 NE7       30.20R
PLATTSMOUTH    MOCLDY    57  52  84 SE3       30.20R
$$

NEZ044-045-051>053-067-261100-
OMAHA AREA

CITY           SKY/WX    TMP DP  RH WIND       PRES   REMARKS
BLAIR          MOCLDY    57  53  85 NE5       30.19S
FREMONT        FAIR      61  48  63 CALM      30.20R
MILLARD        FAIR      63  52  68 CALM      30.20R
OFFUTT AFB     MOCLDY    57  53  84 CALM      30.19F
PLATTSMOUTH    MOCLDY    57  52  84 SE3       30.20R
WAHOO          FAIR      57  49  75 NE6       30.19S
$$




USA.gov is the U.S. government's official web portal to all federal, state and local government web resources and services.